Location: Gerlach
(40.6516°N, 119.3568°W)
Time: 05:35:47
(UTC-07:00)

Explorer 11/Cluster Stage 4 - Pass Details

Date: 02 February 2023
Orbit: 466 x 1241 km, 28.8° (Epoch: 02 April)

Event Time Altitude Azimuth Distance (km) Brightness Sun altitude
Exits shadow 03:49:13 15° 164° (SSE) 2,784 9.4 -37.6°
Maximum altitude 03:50:33 15° 152° (SSE) 2,762 9.5 -37.3°
Drops below altitude 10° 03:54:52 10° 120° (ESE) 3,198 10.2 -36.5°
Sets 03:59:13 0° 100° (E) 4,161 11.2 -35.7°
